Regional Weather Roundup
Issued by NWS Charleston, SC

Current Version | Previous Version | Text Only | Print | Product List | Glossary Off
Versions: 1 2 3 4 5 6 7 8 9 10 11 12 13 14 15 16 17 18 19 20 21 22 23 24 25 26 27 28 29 30 31 32 33 34 35 36 37 38 39 40 41 42 43 44 45 46 47 48 49 50

000
ASUS42 KCHS 071527
RWRCHS

REGIONAL WEATHER ROUNDUP
NATIONAL WEATHER SERVICE CHARLESTON SC
1000 AM EST WED DEC 07 2016

NOTE: "FAIR" INDICATES FEW OR NO CLOUDS BELOW 12,000 FEET WITH NO
SIGNIFICANT WEATHER AND/OR OBSTRUCTIONS TO VISIBILITY.

NOT ALL STATIONS ARE QUALITY CONTROLLED. USE DATA WITH CAUTION...
ESPECIALLY DEWPOINT OBSERVATIONS.

SCZ027-030-031-034>040-042>050-071600-
...SOUTHEAST SOUTH CAROLINA...

CITY           SKY/WX    TMP DP  RH WIND       PRES   REMARKS
N CHARLESTON   CLOUDY    53  50  89 E6        30.09R
WATERFRONT PRK NOT AVBL
MOUNT PLEASANT CLOUDY    52  50  93 CALM      30.09R
JOHNS ISLAND   CLOUDY    54  52  94 CALM      30.09R FOG
PINOPOLIS        N/A     50  48  93 E6        30.01R
MONCKS CORNER  CLOUDY    50  46  87 CALM      30.08S
SUMMERVILLE    CLOUDY    52  52 100 N3        30.10R
BEAUFORT MCAS  CLOUDY    55  53  93 CALM      30.08R
BEAUFORT ARPT  CLOUDY    54  52  94 NE3       30.08R FOG
HILTON HEAD IS CLOUDY    55  54  94 CALM      30.08R
WALTERBORO     CLOUDY    54 N/A N/A CALM      30.09R HAZE
ALLENDALE      FOG       54  54 100 CALM      30.07R VSB 1

...SOUTHERN MIDLANDS AND PEE DEE...

CITY           SKY/WX    TMP DP  RH WIND       PRES   REMARKS
GEORGETOWN     FAIR      54  46  76 CALM      30.09S
KINGSTREE      FAIR      52  45  76 CALM      30.09R
ORANGEBURG     CLOUDY    50  48  93 E5        30.09R
BARNWELL       NOT AVBL
AIKEN          CLOUDY    48  48 100 E3        30.10R FOG
MANNING        CLOUDY    48  45  87 CALM      30.09R
COLUMBIA       CLOUDY    51  48  89 E7        30.08R
SUMTER         PTSUNNY   48  44  87 E3        30.07R
FLORENCE       SUNNY     52  46  80 VRB5      30.09R
MYRTLE BEACH   SUNNY     54  45  71 N7        30.09R
N MYRTLE BEACH SUNNY     52  46  80 MISG      30.06R

$$

GAZ063-065-086>088-099>101-113>116-118-119-134>141-150-071600-
...SOUTHEAST GEORGIA...

CITY           SKY/WX    TMP DP  RH WIND       PRES   REMARKS
SAVANNAH ARPT  CLOUDY    56  54  93 N3        30.09R
HUNTER AAF     CLOUDY    57  57 100 NE3       30.06R
FORT STEWART   CLOUDY    59  53  79 CALM      30.06R
STATESBORO     NOT AVBL
SYLVANIA       CLOUDY   N/A N/A N/A CALM      30.09R
CLAXTON        CLOUDY    59  56  91 CALM      30.09R

...CSRA...CENTRAL AND FAR SOUTHEAST GEORGIA...

CITY           SKY/WX    TMP DP  RH WIND       PRES   REMARKS
THOMSON        CLOUDY    53  53 100 CALM      30.11R
AUGUSTA-BUSH   CLOUDY    54  51  90 E3        30.07R FOG
AUGUSTA-DANIEL CLOUDY    54  49  83 VRB3      30.08R
SWAINSBORO     PTSUNNY   57  52  82 CALM      30.08S
VIDALIA        MOSUNNY   61  54  77 CALM      30.08S
EASTMAN        CLOUDY    56  55  95 CALM      30.11S
HAZLEHURST     FAIR      61  56  82 CALM      30.08R
ALMA           PTSUNNY   58  54  86 NW3       30.09R
WAYCROSS       PTSUNNY   63  58  83 N7        30.10R
JESUP          CLOUDY    61  59  94 W3        30.09S
BAXLEY         FAIR      61  55  82 CALM      30.09R
BRUNSWICK      MOSUNNY   63  59  88 NW6       30.09R
SAINT SIMONS   MOSUNNY   64  55  72 VRB3      30.07R

$$

SCZ027-028-034-036>038-045-046-048>050-GAZ119-141-071600-
...LAKE AND SUPPLEMENTAL COASTAL OBSERVATIONS...

STATION/POSITION TIME  TEMP    WIND        PRES    WAVE   SWELL
                       AIR SEA DIR/SP/G            HT/PER HT/PER/DIR
                 (UTC) (F)     (DEG/KT/KT) (MB)    (FT/S) (FT/S/D)
WINYAH BAY       1445   52     320/  4     1018.0R
LAKE MURRAY      1430   48      80/  4/  7 1017.6R
ACE BASIN NERRS  1445   53      20/  1     1018.0R
FORT PULASKI     1500   56 62   20/  5/  6 1018.8
SAPELO ISLAND    1500   62      10/  4     1019.0

$$

ANZ835-935-AMZ111-154-330-350-352-354-370-450-454-472-071600-
...C-MAN AND BUOY OBSERVATIONS...

STATION/POSITION TIME  TEMP    WIND        PRES    WAVE   SWELL
                       AIR SEA DIR/SP/G            HT/PER HT/PER/DIR
                 (UTC) (F)     (DEG/KT/KT) (MB)    (FT/S) (FT/S/D)
BUOY 41004       1450   59 74   30/  8/ 12 1017.6R   3/ 8   2/150/ 8
BUOY 41008       1450   60 65   20/  8/ 10 1018.0R   2/ 6   2/150/ 6
FOLLY BEACH CMAN 1500   53      30/  4/  5 1019.2R
CAPERS NEARSHORE 1408   51 60   10/  6/ 10 1018.0R
FRIPP NEARSHORE  1508   54 61  310/  4/  8 1018.6R


STATION/POSITION TIME  TEMP    WIND        PRES    WAVE   SWELL
                       AIR SEA DIR/SP/G            HT/PER HT/PER/DIR
                 (UTC) (F)     (DEG/KT/KT) (MB)    (FT/S) (FT/S/D)
5E ST. MARYS GA  1500      65                N/A     1/ 7
FRYING PAN BUOY  1510   56 74  360/ 16/ 19 1017.8
BUOY 41025       1450   54 74  340/ 17/ 23 1015.9R   6/ 5   2/170/11
CAPE LOOKOUT NC  1500   49     330/  9/ 12 1017.0R
BUOY 41002       1450   72 74  310/ 14/ 17 1015.2R   9/ 8   7/280/ 8
BUOY 41010       NOT AVBL
ST AUGUSTINE FL  1500   63 67  330/  9/ 10 1019.2R


$$



USA.gov is the U.S. government's official web portal to all federal, state and local government web resources and services.